When you browse on this site, cookies collect data to enhance your experience and personalize the content and advertising you see.
Visit our Privacy Policy to learn more. By continuing to use the site, you agree to this use of cookies and data.
  • In Hungary
  • List of Countries
  • For 7 days
  • Water Temperature
  • Satellite Maps
  • Weather Map
  • News
  • Weather Widgets
  • user-avatar
    Login

    Hourly Weather Katihar

    Today, 26 March, Tuesday

    Time Temperature Precipitation Wind Pressure Humidity
    00:00 +29°C° 0 mm 1 mps 754 mmHg 29%
    01:00 +28°C° 0 mm 1 mps 754 mmHg 31%
    02:00 +28°C° 0 mm 2 mps 754 mmHg 33%
    03:00 +27°C° 0 mm 2 mps 754 mmHg 35%
    04:00 +27°C° 0 mm 2 mps 754 mmHg 36%
    05:00 +27°C° 0 mm 2 mps 754 mmHg 38%
    06:00 +26°C° 0 mm 3 mps 754 mmHg 48%
    07:00 +27°C° 0 mm 2 mps 755 mmHg 46%
    08:00 +28°C° 0 mm 2 mps 755 mmHg 44%
    09:00 +29°C° 0 mm 1 mps 756 mmHg 42%
    10:00 +31°C° 0 mm 2 mps 756 mmHg 37%
    11:00 +34°C° 0 mm 3 mps 756 mmHg 31%
    12:00 +36°C° 0 mm 4 mps 757 mmHg 26%
    13:00 +36°C° 0 mm 5 mps 756 mmHg 25%
    14:00 +36°C° 0 mm 6 mps 756 mmHg 24%
    15:00 +36°C° 0 mm 7 mps 755 mmHg 24%
    16:00 +35°C° 0 mm 6 mps 755 mmHg 25%
    17:00 +34°C° 0 mm 4 mps 754 mmHg 26%
    18:00 +33°C° 0 mm 3 mps 754 mmHg 27%
    19:00 +30°C° 0 mm 3 mps 755 mmHg 30%
    20:00 +29°C° 0 mm 3 mps 755 mmHg 33%
    21:00 +28°C° 0 mm 3 mps 756 mmHg 37%
    22:00 +27°C° 0 mm 3 mps 756 mmHg 39%
    23:00 +27°C° 0 mm 3 mps 756 mmHg 41%

    Tomorrow, 27 March, Wednesday

    Time Temperature Precipitation Wind Pressure Humidity
    00:00 +26°C° 0 mm 2 mps 756 mmHg 44%
    01:00 +26°C° 0.2 mm 2 mps 756 mmHg 47%
    02:00 +25°C° 0.2 mm 2 mps 756 mmHg 50%
    03:00 +24°C° 0.2 mm 2 mps 755 mmHg 53%
    04:00 +24°C° 0 mm 2 mps 755 mmHg 53%
    05:00 +24°C° 0 mm 2 mps 756 mmHg 53%
    06:00 +24°C° 0 mm 2 mps 756 mmHg 53%
    07:00 +26°C° 0 mm 2 mps 756 mmHg 48%
    08:00 +28°C° 0 mm 2 mps 757 mmHg 43%
    09:00 +30°C° 0 mm 1 mps 757 mmHg 38%
    10:00 +31°C° 0 mm 2 mps 757 mmHg 35%
    11:00 +34°C° 0 mm 2 mps 757 mmHg 31%
    12:00 +35°C° 0 mm 2 mps 756 mmHg 27%
    13:00 +36°C° 0 mm 3 mps 756 mmHg 25%
    14:00 +37°C° 0 mm 3 mps 755 mmHg 22%
    15:00 +37°C° 0 mm 3 mps 754 mmHg 20%
    16:00 +37°C° 0 mm 3 mps 753 mmHg 21%
    17:00 +36°C° 0 mm 2 mps 753 mmHg 23%
    18:00 +35°C° 0 mm 2 mps 753 mmHg 24%
    19:00 +34°C° 0 mm 2 mps 753 mmHg 26%
    20:00 +32°C° 0 mm 2 mps 754 mmHg 28%
    21:00 +30°C° 0 mm 2 mps 755 mmHg 30%
    22:00 +30°C° 0 mm 2 mps 755 mmHg 31%
    23:00 +29°C° 0 mm 1 mps 755 mmHg 33%

    Day after tomorrow, 28 March, Thursday

    Time Temperature Precipitation Wind Pressure Humidity
    00:00 +28°C° 0 mm 1 mps 755 mmHg 35%
    01:00 +28°C° 0 mm 1 mps 755 mmHg 35%
    02:00 +27°C° 0 mm 1 mps 755 mmHg 36%
    03:00 +27°C° 0 mm 1 mps 754 mmHg 37%
    04:00 +26°C° 0 mm 1 mps 755 mmHg 36%
    05:00 +26°C° 0 mm 2 mps 755 mmHg 36%
    06:00 +25°C° 0 mm 2 mps 755 mmHg 36%
    07:00 +27°C° 0 mm 2 mps 755 mmHg 34%
    08:00 +29°C° 0 mm 2 mps 756 mmHg 32%
    09:00 +31°C° 0 mm 2 mps 756 mmHg 30%
    10:00 +34°C° 0 mm 2 mps 756 mmHg 27%
    11:00 +35°C° 0 mm 1 mps 756 mmHg 25%
    12:00 +36°C° 0 mm 1 mps 756 mmHg 22%
    13:00 +37°C° 0 mm 1 mps 755 mmHg 21%
    14:00 +37°C° 0 mm 1 mps 754 mmHg 19%
    15:00 +39°C° 0 mm 1 mps 753 mmHg 17%
    16:00 +37°C° 0 mm 1 mps 753 mmHg 18%
    17:00 +37°C° 0 mm 1 mps 752 mmHg 19%
    18:00 +37°C° 0 mm 2 mps 752 mmHg 19%
    19:00 +36°C° 0 mm 2 mps 752 mmHg 20%
    20:00 +35°C° 0 mm 2 mps 753 mmHg 21%
    21:00 +32°C° 0 mm 2 mps 753 mmHg 22%
    22:00 +32°C° 0 mm 2 mps 753 mmHg 24%
    23:00 +31°C° 0 mm 2 mps 753 mmHg 26%

    29 March, Friday

    Time Temperature Precipitation Wind Pressure Humidity
    00:00 +30°C° 0 mm 2 mps 753 mmHg 27%
    01:00 +29°C° 0 mm 2 mps 753 mmHg 31%
    02:00 +29°C° 0 mm 3 mps 752 mmHg 35%
    03:00 +28°C° 0 mm 3 mps 752 mmHg 39%
    04:00 +27°C° 0 mm 3 mps 752 mmHg 41%
    05:00 +27°C° 0 mm 3 mps 752 mmHg 42%
    06:00 +27°C° 0 mm 3 mps 752 mmHg 44%
    07:00 +28°C° 0 mm 3 mps 752 mmHg 42%
    08:00 +30°C° 0 mm 4 mps 753 mmHg 40%
    09:00 +33°C° 0 mm 4 mps 754 mmHg 38%
    10:00 +35°C° 0 mm 3 mps 754 mmHg 35%
    11:00 +37°C° 0 mm 3 mps 753 mmHg 32%
    12:00 +38°C° 0 mm 3 mps 753 mmHg 29%
    13:00 +39°C° 0 mm 2 mps 752 mmHg 26%
    14:00 +39°C° 0 mm 1 mps 751 mmHg 23%
    15:00 +40°C° 0 mm 1 mps 750 mmHg 20%
    16:00 +39°C° 0 mm 1 mps 750 mmHg 21%
    17:00 +37°C° 0 mm 1 mps 750 mmHg 22%
    18:00 +37°C° 0 mm 1 mps 750 mmHg 23%
    19:00 +36°C° 0 mm 2 mps 751 mmHg 28%
    20:00 +35°C° 0 mm 3 mps 751 mmHg 33%
    21:00 +34°C° 0 mm 3 mps 752 mmHg 38%
    22:00 +33°C° 0 mm 3 mps 752 mmHg 42%
    23:00 +31°C° 0 mm 3 mps 752 mmHg 46%

    30 March, Saturday

    Time Temperature Precipitation Wind Pressure Humidity
    00:00 +30°C° 0 mm 3 mps 752 mmHg 50%
    01:00 +29°C° 0 mm 3 mps 751 mmHg 53%
    02:00 +29°C° 0 mm 3 mps 751 mmHg 56%
    03:00 +28°C° 0 mm 3 mps 750 mmHg 59%
    04:00 +28°C° 0 mm 3 mps 751 mmHg 62%
    05:00 +27°C° 0 mm 3 mps 751 mmHg 64%
    06:00 +27°C° 0 mm 3 mps 751 mmHg 67%
    07:00 +28°C° 0 mm 4 mps 752 mmHg 64%
    08:00 +30°C° 0 mm 5 mps 752 mmHg 61%
    09:00 +32°C° 0 mm 6 mps 753 mmHg 59%
    10:00 +34°C° 0 mm 5 mps 753 mmHg 52%
    11:00 +36°C° 0 mm 5 mps 752 mmHg 45%
    12:00 +39°C° 0 mm 5 mps 752 mmHg 39%
    13:00 +38°C° 0 mm 4 mps 751 mmHg 35%
    14:00 +39°C° 0 mm 3 mps 750 mmHg 31%
    15:00 +40°C° 0 mm 2 mps 750 mmHg 27%
    16:00 +39°C° 0 mm 2 mps 750 mmHg 28%
    17:00 +39°C° 0 mm 2 mps 750 mmHg 29%
    18:00 +38°C° 0 mm 2 mps 750 mmHg 30%
    19:00 +37°C° 0 mm 2 mps 750 mmHg 36%
    20:00 +35°C° 0 mm 3 mps 751 mmHg 41%
    21:00 +34°C° 0 mm 3 mps 751 mmHg 47%
    22:00 +33°C° 0 mm 3 mps 751 mmHg 49%
    23:00 +33°C° 0 mm 3 mps 751 mmHg 51%

    31 March, Sunday

    Time Temperature Precipitation Wind Pressure Humidity
    00:00 +31°C° 0 mm 3 mps 751 mmHg 52%
    01:00 +30°C° 0 mm 4 mps 751 mmHg 56%
    02:00 +29°C° 0 mm 4 mps 751 mmHg 60%
    03:00 +28°C° 0 mm 5 mps 750 mmHg 63%
    04:00 +28°C° 0.2 mm 5 mps 751 mmHg 68%
    05:00 +27°C° 0.2 mm 5 mps 751 mmHg 72%
    06:00 +27°C° 0.2 mm 6 mps 751 mmHg 77%
    07:00 +28°C° 0 mm 6 mps 752 mmHg 74%
    08:00 +29°C° 0 mm 6 mps 752 mmHg 70%
    09:00 +30°C° 0 mm 7 mps 753 mmHg 67%
    10:00 +32°C° 0 mm 6 mps 753 mmHg 63%
    11:00 +33°C° 0 mm 6 mps 753 mmHg 59%
    12:00 +35°C° 0 mm 6 mps 752 mmHg 55%
    13:00 +35°C° 0 mm 5 mps 751 mmHg 53%
    14:00 +36°C° 0 mm 4 mps 751 mmHg 50%
    15:00 +37°C° 0 mm 4 mps 750 mmHg 48%
    16:00 +37°C° 0 mm 3 mps 750 mmHg 48%
    17:00 +37°C° 0 mm 3 mps 750 mmHg 48%
    18:00 +36°C° 0 mm 3 mps 750 mmHg 49%
    19:00 +35°C° 0 mm 3 mps 750 mmHg 51%
    20:00 +34°C° 0 mm 4 mps 751 mmHg 53%
    21:00 +33°C° 0 mm 4 mps 752 mmHg 56%
    22:00 +32°C° 0.9 mm 6 mps 752 mmHg 58%
    23:00 +30°C° 0.9 mm 7 mps 752 mmHg 60%
    Show more